National Oceanic Atmosphere Administration National Weather Service Headquarters National Weather Service Headquarters
NOAA logo WFO Anchorage Scalable transition graphic NWS logo
Transition from title bar to navgation bar   Aviation Weather 01 AKDT 
blankspace Home   |   Mobile   |   Social Media   |   Mesonet   |   Surface Map   |   Radar   |   Submit Storm Reports =09 GMT 

LocalForecast by City, St or Zip Code

spacer

Forecasts/Products
  Public
  Forecast Discussion
    - With Glossary
  Aviation
  Marine
  Hydrology(RFC)
  Rivers & Lakes AHPS
  Ice Desk
  TV Weather
  Fire Weather
  Avalanche
  Travel 511
  Graphical
  xml logo RSS Feeds
  Marine FTPMail

spacer

Data
  Mesonet
  Model Graphics
  Local Model
  Observations
  Marine Obs
  Satellite/Radar
  Vent Factor
  Soaring Index
  Weather Links

spacer

Climate
  PAFC Climate
  Interactive Climate
  PAFC Records
  Local
  National
  More

spacer

Outreach
  About Us
  Community Outreach
  Kids' Page
  Tour/Speaker Request
  Weather Classroom
  Social Media

spacer

Reports
  COOP Observers
  Local Storm Reports
  Spotter Page
  Submit a Storm Report

spacer

Miscellaneous
  Archived Alaska Weather Stories
  Student Career Opportunities
  Research Papers

spacer

Print Friendly/
Low Bandwidth

  Public Forecasts
  Marine Forecasts

spacer

Contact Us
  mailto pafcweb

spacer

Facebook Follow the National Weather Service in Alaska on Twitter
USA.gov is the U.S. government's official web portal to all federal, state and local government web resources and services.


 ICAO ID:   AAWU Graphics

Internet access to TAFs and METAR observations is for planning purposes only. We can not guarantee the timeliness of internet products. Before flying please get a formal pilot briefing (1-800-992-7433) and ALWAYS file a Flight Plan!Pilot briefings are provided to licensed aircraft pilots, ONLY! Others may not use the above number to obtain weather information.

Check out the Key to TAFs and METARs for help with decoding the information.

A 12 hour summary of TAFs can be found here.

PANC TAF
PANC 010536Z 0106/0212  26008KT P6SM SCT050
     FM011200 18005KT P6SM BKN050
     FM012100 30007KT P6SM SCT050=


METAR PANC 010853Z 20003KT 10SM SCT120 BKN200 13/10 A3030 RMK AO2 SLP260
     T01330100 401940128 51004=
METAR PANC 010853Z 20003KT 10SM SCT120 BKN200 13/10 A3030=
METAR PANC 010753Z 00000KT 10SM FEW030 SCT120 BKN200 13/11 A3029 RMK AO2
     SLP259 T01330106=
METAR PANC 010753Z 00000KT 10SM FEW030 SCT120 BKN200 13/11 A3029=
METAR PANC 010653Z 26005KT 10SM FEW030 SCT120 BKN200 15/10 A3029 RMK AO2
     SLP258 T01500100=
METAR PANC 010653Z 26005KT 10SM FEW030 SCT120 BKN200 15/10 A3029=
METAR PANC 010553Z 26008KT 10SM FEW030 SCT120 BKN200 16/10 A3028 RMK
    AO2 SLP255 T01610100 10194 20161 56006=
METAR PANC 010553Z 26008KT 10SM FEW030 SCT120 BKN200 16/10 A3028=


National Weather Service
Anchorage Forecast Office
6930 Sand Lake Road
Anchorage, Ak 99502
(907) 266-5105 M-F/7-5pm
About Us
Career Opportunities
Glossary
Disclaimer
Privacy Policy
Credits
Alaska Weather Information Line:
1-800-472-0391